Location: Banios
(43.0451°N, 0.2335°E)
Time: 04:16:06
(UTC+00:00)

SL-4 R/B - Pass Details

Date: 25 January 2021
Orbit: 427 x 664 km, 51.6° (Epoch: 26 February)

Event Time Altitude Azimuth Distance (km) Brightness Sun altitude
Exits shadow 05:07:28 58° 91° (E) 578 2.3 -24.3°
Drops below altitude 10° 05:10:52 10° 60° (ENE) 1,755 5.3 -23.7°
Sets 05:13:11 0° 58° (ENE) 2,693 6.4 -23.3°
